Location: Kuffner-Sternwarte
(48.2130°N, 16.2960°E)
Time: 02:03:59
(UTC+02:00)

COROT - Pass Details

Date: 14 January 2018
Orbit: 600 x 889 km, 90.0° (Epoch: 22 April)

Event Time Altitude Azimuth Distance (km) Brightness Sun altitude
Rises 05:35:25 0° 358° (N) 2,869 8.9 -20.3°
Reaches altitude 10° 05:37:38 10° 355° (N) 1,954 8.0 -20.0°
Maximum altitude 05:41:48 60° 276° (W) 698 5.4 -19.3°
Drops below altitude 10° 05:46:01 10° 197° (SSW) 1,975 8.1 -18.6°
Sets 05:48:16 0° 193° (SSW) 2,901 9.0 -18.2°
